カタログに戻る

NOAA 16 DEB

運用中PO
NORAD 41652·DEBRIS·🇺🇸 United States

打ち上げ Sep 21, 2000 から Vandenberg Space Force Base

Loading…

次のパス (今後24時間)

TLE

最新Source: Space-Track

元期: Sep 14, 2026, 13:26 UTC

1 41652U 00055NR  26257.56034563  .00009470  00000-0  24966-2 0  9991
2 41652  98.8787  18.7686 0031856 163.2973 196.9276 14.48895553537969

AllMySatでNOAA 16 DEBをリアルタイム追跡

Download on the App Store